Location: Newark
(60.6561°N, 46.5772°E)
Time: 02:34:44
(UTC+00:00)

Tiros 1 despin weight - Pass Details

Date: 24 October 2019
Orbit: 594 x 642 km, 48.2° (Epoch: 12 November)

Event Time Altitude Azimuth Distance (km) Brightness Sun altitude
Rises 22:25:22 0° 237° (WSW) 2,931 - -37.4°
Reaches altitude 10° 22:28:18 10° 218° (SW) 2,029 - -37.2°
Maximum altitude 22:31:25 18° 177° (S) 1,582 - -37.0°
Drops below altitude 10° 22:34:31 10° 135° (SE) 2,036 - -36.8°
Sets 22:37:29 0° 116° (ESE) 2,946 - -36.5°
